NSS-12

Last updated on Wed Jul 02 2025 00:02:44 GMT+0000 (Coordinated Universal Time)

1 36032U 09058A 25182.60739375 .00000075 00000+0 00000+0 0 9994 2 36032 0.0826 282.6975 0003687 149.3474 123.5058 1.00271635 57402
UTC large
Height (km)
Speed (km/s)
/
Latitude / Longitude
Inclination (degrees)
Orbital Period (minutes)
Azimuth
Elevation
Range (km)
Doppler Factor

Next 0 passes for location: London (51.5072 / 0.1276)

Sorry there are no passes over London.